Location: Bli��� Lhota
(48.7570°N, 14.0120°E)
Time: 01:39:41
(UTC+00:00)

Okean 1 Rocket - Pass Details

Date: 18 September 2020
Orbit: 606 x 635 km, 82.5° (Epoch: 24 October)

Event Time Altitude Azimuth Distance (km) Brightness Sun altitude
Exits shadow 19:51:18 54° 236° (SW) 777 3.5 -25.7°
Maximum altitude 19:52:02 63° 282° (WNW) 711 3.4 -25.8°
Drops below altitude 10° 19:56:31 10° 4° (N) 2,035 6.1 -26.4°
Sets 19:58:48 0° 8° (N) 2,947 6.9 -26.7°
